This demonstration page uses our WeatherBlox Daily Observations layout. Learn more.

Left ArrowRight Arrow

Hourly Observations for August 30, 2020

Temp ( °F °C ) Dew Point ( °F °C ) Humidity (%) Winds ( mph kmh ) Pressure ( in mb ) Visibility ( mi km ) Precip ( " mm )
12:15 am 00:15 Clear 63 17 53 11.5 70 70 SE 5 7 29.85 1011 10 16.0934 0 0
12:35 am 00:35 Clear 62 16.6 53 11.5 72 72 SE 7 11 29.86 1011 10 16.0934 0 0
12:55 am 00:55 Clear 63 17 52 11.3 69 69 SE 6 9 29.85 1011 10 16.0934 0 0
1:15 am 01:15 Clear 62 16.7 53 11.5 72 72 SSE 6 9 29.84 1011 10 16.0934 0 0
1:35 am 01:35 Clear 62 16.9 53 11.5 71 71 SE 7 11 29.84 1011 10 16.0934 0 0
1:55 am 01:55 Clear 63 17 52 11.2 69 69 SE 8 13 29.84 1011 10 16.0934 0 0
2:15 am 02:15 Clear 63 17.1 52 11.1 68 68 SE 6 9 29.85 1011 10 16.0934 0 0
2:35 am 02:35 Clear 63 17 52 11.3 69 69 SSE 6 9 29.83 1010 10 16.0934 0 0
2:55 am 02:55 Clear 62 16.6 53 11.4 72 72 S 3 6 29.84 1010 10 16.0934 0 0
3:15 am 03:15 Clear 61 16.3 52 11.3 72 72 SSE 3 6 29.82 1010 10 16.0934 0 0
3:35 am 03:35 Clear 61 16 53 11.5 75 75 SE 8 13 29.82 1010 10 16.0934 0 0
3:55 am 03:55 Clear 61 16.1 53 11.5 74 74 SE 6 9 29.82 1010 10 16.0934 0 0
4:15 am 04:15 Clear 60 15.8 53 11.6 76 76 SE 7 11 29.81 1010 10 16.0934 0 0
4:35 am 04:35 Clear 60 15.6 54 12 79 79 SSE 5 7 29.81 1010 10 16.0934 0 0
4:55 am 04:55 Clear 60 15.5 55 12.5 82 82 SSE 5 7 29.82 1010 10 16.0934 0 0
5:15 am 05:15 Clear 62 16.5 56 13.6 83 83 SSE 7 11 29.82 1010 10 16.0934 0 0
5:35 am 05:35 Clear 63 17 58 14.3 84 84 SSE 8 13 29.8 1009 10 16.0934 0 0
5:55 am 05:55 Clear 63 17.1 59 14.9 87 87 S 6 9 29.81 1010 10 16.0934 0 0
6:15 am 06:15 Partly Cloudy 63 17.3 60 15.4 89 89 SSE 6 9 29.8 1009 10 16.0934 0 0
6:35 am 06:35 Clear 64 17.5 60 15.8 90 90 S 8 13 29.8 1009 10 16.0934 0 0
6:55 am 06:55 Clear 64 17.5 60 15.7 89 89 S 8 13 29.8 1009 10 16.0934 0 0
7:15 am 07:15 Sunny 64 17.5 60 15.6 89 89 S 9 15 29.8 1009 10 16.0934 0 0
7:35 am 07:35 Sunny 63 17.4 60 15.7 90 90 S 8 13 29.8 1009 10 16.0934 0 0
7:55 am 07:55 Partly Cloudy 64 17.6 61 15.9 90 90 S 9 15 29.8 1009 10 16.0934 0 0
8:15 am 08:15 Partly Cloudy 64 17.8 61 16 89 89 SSE 8 13 29.8 1009 10 16.0934 0 0
8:35 am 08:35 Partly Cloudy 66 18.8 62 16.4 86 86 S 10 17 29.78 1008 10 16.0934 0 0
8:55 am 08:55 Mostly Cloudy 66 19.1 63 17 88 88 S 14 22 29.76 1008 10 16.0934 0 0
9:15 am 09:15 Cloudy 67 19.5 63 17.4 88 88 S 15 24 29.76 1008 10 16.0934 0 0
9:35 am 09:35 Cloudy 69 20.4 64 17.8 85 85 S 14 22 29.74 1007 10 16.0934 0 0
9:55 am 09:55 Cloudy 70 21 64 17.8 82 82 S 14 22 29.74 1007 10 16.0934 0 0
10:15 am 10:15 Cloudy 71 21.5 64 17.8 80 80 S 15 24 29.73 1007 10 16.0934 0 0
10:35 am 10:35 Cloudy 72 22 64 17.7 77 77 S 15 24 29.71 1006 10 16.0934 0 0
10:55 am 10:55 Cloudy 73 22.8 64 17.9 74 74 S 15 24 29.7 1006 10 16.0934 0 0
11:15 am 11:15 Cloudy 73 22.8 64 17.9 74 74 S 16 26 29.7 1006 10 16.0934 0 0
11:35 am 11:35 Cloudy 73 23 64 18 74 74 S 16 26 29.68 1005 10 16.0934 0 0
11:55 am 11:55 Cloudy 74 23.5 65 18.1 72 72 S 18 30 29.69 1005 10 16.0934 0 0
12:15 pm 12:15 Cloudy 75 24 64 18 69 69 SSW 15 24 29.67 1005 10 16.0934 0 0
12:35 pm 12:35 Cloudy 75 23.7 65 18.1 71 71 S 14 22 29.67 1005 10 16.0934 0 0
12:55 pm 12:55 Cloudy 76 24.5 65 18.2 68 68 S 15 24 29.65 1004 10 16.0934 0 0
1:15 pm 13:15 Cloudy 77 25.1 65 18.2 66 66 S 16 26 29.64 1004 10 16.0934 0 0
1:35 pm 13:35 Cloudy 78 25.4 65 18.2 64 64 S 15 24 29.61 1003 10 16.0934 0 0
1:55 pm 13:55 Cloudy 81 27 65 18.1 58 58 S 17 28 29.61 1003 10 16.0934 0 0
2:15 pm 14:15 Cloudy 80 26.5 65 18.2 60 60 SSW 15 24 29.6 1002 10 16.0934 0 0
2:35 pm 14:35 Mostly Cloudy 80 26.6 64 18 59 59 S 16 26 29.59 1002 10 16.0934 0 0
2:55 pm 14:55 Mostly Cloudy 80 26.6 64 18 59 59 S 16 26 29.59 1002 10 16.0934 0 0
3:15 pm 15:15 Mostly Cloudy 80 26.7 64 18 59 59 S 18 30 29.57 1002 10 16.0934 0 0
3:35 pm 15:35 Partly Cloudy 81 27 64 18 58 58 S 14 22 29.56 1001 10 16.0934 0 0
3:55 pm 15:55 Partly Cloudy 81 27.2 64 17.9 57 57 S 13 20 29.55 1001 10 16.0934 0 0
4:15 pm 16:15 Partly Cloudy 82 27.5 64 17.9 56 56 S 16 26 29.54 1000 10 16.0934 0 0
4:35 pm 16:35 Sunny 82 27.9 65 18.1 55 55 S 16 26 29.53 1000 10 16.0934 0 0
4:55 pm 16:55 Sunny 82 28 64 18 55 55 S 16 26 29.52 1000 10 16.0934 0 0
5:15 pm 17:15 Sunny 82 27.6 65 18.1 56 56 S 16 26 29.51 999 10 16.0934 0 0
5:35 pm 17:35 Sunny 82 28 65 18.1 55 55 SSE 15 24 29.51 999 10 16.0934 0 0
5:55 pm 17:55 Sunny 83 28.1 65 18.2 55 55 S 13 20 29.5 999 10 16.0934 0 0
6:15 pm 18:15 Sunny 82 28 65 18.2 55 55 S 15 24 29.48 998 10 16.0934 0 0
6:35 pm 18:35 Sunny 82 28 65 18.2 55 55 SSE 12 19 29.48 998 10 16.0934 0 0
6:55 pm 18:55 Sunny 82 27.6 65 18.2 57 57 S 12 19 29.49 999 10 16.0934 0 0
7:15 pm 19:15 Sunny 81 27 65 18.5 60 60 SSE 8 13 29.48 998 10 16.0934 0 0
7:35 pm 19:35 Sunny 79 26.1 66 18.7 64 64 SSE 12 19 29.49 999 10 16.0934 0 0
7:55 pm 19:55 Sunny 77 25 66 18.8 69 69 SSE 9 15 29.5 999 10 16.0934 0 0
8:15 pm 20:15 Clear 75 24 66 18.8 73 73 SSE 9 15 29.51 999 10 16.0934 0 0
8:35 pm 20:35 Clear 74 23.4 66 18.9 76 76 SSE 9 15 29.51 999 10 16.0934 0 0
8:55 pm 20:55 Clear with Nearby Thunderstorms 73 23 66 19 78 78 SSE 10 17 29.52 1000 10 16.0934 0 0
9:15 pm 21:15 Clear 73 22.5 66 19 81 81 SSE 10 17 29.54 1000 10 16.0934 0 0
9:35 pm 21:35 Clear 72 22 66 19 83 83 SSE 9 15 29.55 1001 10 16.0934 0 0
9:55 pm 21:55 Clear 71 21.7 66 19 85 85 SSE 9 15 29.56 1001 10 16.0934 0 0
10:15 pm 22:15 Clear 71 21.5 66 19.1 86 86 SSE 8 13 29.57 1001 10 16.0934 0 0
10:35 pm 22:35 Clear 70 21.3 66 19.1 87 87 SSE 8 13 29.57 1001 10 16.0934 0 0
10:55 pm 22:55 Clear 70 21.1 66 19.1 88 88 SSE 8 13 29.57 1001 10 16.0934 0 0
11:15 pm 23:15 Clear 70 21 66 19 88 88 SSE 8 13 29.57 1001 10 16.0934 0 0
11:35 pm 23:35 Clear 69 20.8 66 18.8 88 88 SSE 7 11 29.58 1002 10 16.0934 0 0
11:55 pm 23:55 Clear 70 21 66 18.8 87 87 SSE 8 13 29.58 1002 10 16.0934 0 0

Powered by AerisWeather